MSR6679 LGAV-HECA

Flight info

Callsign MSR6679
Flight time N/A
Altitude 35000
Route KEA1E / KEA UN132 KUPIS DCT LAPSO UN132 KUMBI L612 BLT A16 CVO
Aircraft B38M/M-SDE1FGHILORVWXY/HB1

Departure

Time 2026-05-04 11:53
Airport Athens Eleftherios Venizelos International Airport (LGAV)

Arrival

Time N/A
Airport Cairo International Airport (HECA)
Time Latitude Longitude Altitude Speed Heading
2026-05-04 11:19 37.93373 23.94620 289 ft 0 kts 309°
2026-05-04 11:41 37.93371 23.94623 289 ft 3 kts 309°
2026-05-04 11:41 37.93360 23.94640 293 ft 3 kts 309°
2026-05-04 11:41 37.93349 23.94657 291 ft 2 kts 309°
2026-05-04 11:41 37.93338 23.94674 292 ft 3 kts 307°
2026-05-04 11:42 37.93330 23.94694 294 ft 2 kts 278°
2026-05-04 11:42 37.93331 23.94716 294 ft 2 kts 251°
2026-05-04 11:42 37.93340 23.94734 291 ft 2 kts 223°
2026-05-04 11:42 37.93353 23.94745 295 ft 2 kts 203°
2026-05-04 11:43 37.93368 23.94754 290 ft 2 kts 213°
2026-05-04 11:43 37.93381 23.94765 292 ft 2 kts 215°
2026-05-04 11:45 37.93352 23.94739 295 ft 11 kts 218°
2026-05-04 11:45 37.93263 23.94650 290 ft 19 kts 218°
2026-05-04 11:45 37.93182 23.94599 288 ft 9 kts 185°
2026-05-04 11:45 37.93157 23.94597 291 ft 6 kts 183°
2026-05-04 11:46 37.93083 23.94629 287 ft 7 kts 128°
2026-05-04 11:46 37.93075 23.94642 291 ft 0 kts 128°
2026-05-04 11:49 37.93070 23.94649 289 ft 3 kts 135°
2026-05-04 11:49 37.93046 23.94667 287 ft 5 kts 163°
2026-05-04 11:49 37.92998 23.94656 286 ft 9 kts 208°
2026-05-04 11:50 37.92938 23.94603 287 ft 12 kts 217°
2026-05-04 11:50 37.92861 23.94529 285 ft 16 kts 217°
2026-05-04 11:50 37.92763 23.94435 284 ft 19 kts 217°
2026-05-04 11:50 37.92647 23.94326 283 ft 23 kts 217°
2026-05-04 11:51 37.92569 23.94290 282 ft 0 kts 159°
2026-05-04 11:51 37.92567 23.94291 282 ft 0 kts 159°
2026-05-04 11:51 37.92566 23.94291 282 ft 1 kts 157°
2026-05-04 11:51 37.92550 23.94305 282 ft 5 kts 137°
2026-05-04 11:52 37.92496 23.94407 281 ft 23 kts 104°
2026-05-04 11:52 37.92604 23.94564 282 ft 41 kts 36°
2026-05-04 11:52 37.93090 23.95024 290 ft 131 kts 37°
2026-05-04 11:52 37.93996 23.95859 461 ft 185 kts 39°
2026-05-04 11:53 37.95134 23.96937 960 ft 226 kts 39°
2026-05-04 11:53 37.96348 23.98164 1912 ft 212 kts 33°
2026-05-04 11:53 37.97584 23.99345 2589 ft 233 kts 34°
2026-05-04 11:53 37.98926 24.00625 3616 ft 244 kts 34°
2026-05-04 11:55 38.02150 24.12809 10613 ft 310 kts 144°
2026-05-04 11:55 38.00328 24.14392 11195 ft 327 kts 143°
2026-05-04 11:56 37.98422 24.16112 11703 ft 345 kts 142°
2026-05-04 11:56 37.96412 24.17934 12159 ft 365 kts 142°
2026-05-04 11:56 37.94453 24.19711 12525 ft 382 kts 142°
2026-05-04 11:56 37.92238 24.21720 12884 ft 400 kts 143°
2026-05-04 11:57 37.89962 24.23780 13249 ft 416 kts 143°
2026-05-04 11:57 37.87567 24.25937 13739 ft 425 kts 143°
2026-05-04 11:57 37.85146 24.28089 14517 ft 427 kts 143°
2026-05-04 11:57 37.82701 24.30240 15249 ft 429 kts 144°
2026-05-04 11:58 37.80246 24.32390 16020 ft 430 kts 144°
2026-05-04 11:58 37.77783 24.34541 16762 ft 432 kts 144°
2026-05-04 11:58 37.75306 24.36702 17474 ft 434 kts 144°
2026-05-04 11:58 37.72812 24.38877 18147 ft 437 kts 144°
2026-05-04 11:59 37.70295 24.41072 18724 ft 441 kts 144°
2026-05-04 11:59 37.67757 24.43276 19264 ft 445 kts 145°
2026-05-04 11:59 37.65229 24.45474 19781 ft 448 kts 144°
2026-05-04 11:59 37.62803 24.47960 20290 ft 451 kts 138°
2026-05-04 12:00 37.60430 24.50571 20801 ft 454 kts 136°
2026-05-04 12:00 37.58122 24.53310 21319 ft 458 kts 136°
2026-05-04 12:00 37.55782 24.56061 21830 ft 461 kts 136°
2026-05-04 12:00 37.53424 24.58817 22349 ft 464 kts 136°
2026-05-04 12:01 37.51047 24.61588 22860 ft 467 kts 136°
2026-05-04 12:01 37.48651 24.64378 23369 ft 470 kts 136°
2026-05-04 12:02 37.33876 24.81525 25530 ft 496 kts 136°
2026-05-04 12:03 37.31326 24.84475 25814 ft 500 kts 136°
2026-05-04 12:03 37.28762 24.87438 26240 ft 501 kts 136°
2026-05-04 12:03 37.26206 24.90389 26923 ft 496 kts 136°
2026-05-04 12:03 37.23677 24.93306 27717 ft 490 kts 136°
2026-05-04 12:04 37.21188 24.96174 28547 ft 483 kts 136°
2026-05-04 12:04 37.18723 24.99012 29166 ft 482 kts 136°
2026-05-04 12:04 37.16222 25.01888 29280 ft 492 kts 136°
2026-05-04 12:04 37.13670 25.04820 29331 ft 503 kts 137°
2026-05-04 12:05 37.11093 25.07779 29302 ft 515 kts 137°
2026-05-04 12:05 37.08430 25.10833 29382 ft 522 kts 137°
2026-05-04 12:05 37.05752 25.13901 29828 ft 522 kts 137°
2026-05-04 12:05 37.03066 25.16975 30177 ft 524 kts 137°
2026-05-04 12:06 37.00372 25.20056 30484 ft 526 kts 137°
2026-05-04 12:06 36.97669 25.23143 30837 ft 526 kts 137°
2026-05-04 12:06 36.94968 25.26226 31157 ft 526 kts 137°
2026-05-04 12:06 36.92264 25.29308 31481 ft 526 kts 137°
2026-05-04 12:07 36.89554 25.32393 31800 ft 527 kts 137°
2026-05-04 12:07 36.86848 25.35472 32130 ft 527 kts 137°
2026-05-04 12:07 36.84134 25.38557 32453 ft 528 kts 137°
2026-05-04 12:07 36.81420 25.41639 32809 ft 527 kts 137°
2026-05-04 12:08 36.78742 25.44675 33186 ft 527 kts 137°
2026-05-04 12:08 36.76029 25.47750 33541 ft 526 kts 137°
2026-05-04 12:08 36.73321 25.50815 33886 ft 526 kts 137°
2026-05-04 12:08 36.70610 25.53882 34219 ft 526 kts 137°
2026-05-04 12:09 36.67900 25.56943 34522 ft 526 kts 137°
2026-05-04 12:09 36.65193 25.59997 34851 ft 524 kts 137°
2026-05-04 12:09 36.62487 25.63048 35107 ft 524 kts 138°
2026-05-04 12:09 36.59789 25.66088 35112 ft 523 kts 138°
2026-05-04 12:10 36.54395 25.72155 35113 ft 523 kts 138°
2026-05-04 12:10 36.49028 25.78180 35112 ft 523 kts 138°
2026-05-04 12:11 36.43621 25.84238 35108 ft 523 kts 138°
2026-05-04 12:11 36.38214 25.90283 35099 ft 523 kts 138°
2026-05-04 12:12 36.32802 25.96322 35094 ft 524 kts 138°
2026-05-04 12:12 36.27415 26.02322 35091 ft 524 kts 138°
2026-05-04 12:14 36.05618 26.26270 35075 ft 523 kts 147°
2026-05-04 12:15 36.00149 26.32163 35090 ft 526 kts 134°
2026-05-04 12:15 35.94815 26.38339 35084 ft 526 kts 139°
2026-05-04 12:16 35.89371 26.44368 35075 ft 526 kts 139°
2026-05-04 12:16 35.83896 26.50373 35075 ft 527 kts 139°
2026-05-04 12:17 35.78454 26.56330 35074 ft 527 kts 140°
2026-05-04 12:17 35.72976 26.62315 35071 ft 527 kts 140°
2026-05-04 12:18 35.67487 26.68300 35068 ft 527 kts 140°
2026-05-04 12:18 35.61998 26.74274 35070 ft 527 kts 140°
2026-05-04 12:19 35.56502 26.80243 35058 ft 527 kts 140°
2026-05-04 12:19 35.51007 26.86201 35052 ft 528 kts 140°
2026-05-04 12:20 35.45498 26.92163 35053 ft 528 kts 140°
2026-05-04 12:20 35.40022 26.98077 35045 ft 528 kts 141°
2026-05-04 12:21 35.34504 27.04025 35052 ft 529 kts 141°
2026-05-04 12:21 35.28644 27.09328 35045 ft 519 kts 160°
2026-05-04 12:22 35.22250 27.13488 35048 ft 526 kts 146°
2026-05-04 12:22 35.16751 27.19457 35041 ft 529 kts 140°
2026-05-04 12:23 35.11313 27.25424 35052 ft 529 kts 141°
2026-05-04 12:23 35.05830 27.31420 35048 ft 529 kts 141°
2026-05-04 12:24 35.00337 27.37413 35043 ft 529 kts 141°
2026-05-04 12:24 34.94847 27.43393 35042 ft 529 kts 141°
2026-05-04 12:25 34.89388 27.49327 35041 ft 530 kts 141°
2026-05-04 12:25 34.83886 27.55297 35039 ft 530 kts 142°
2026-05-04 12:26 34.78383 27.61258 35041 ft 530 kts 142°
2026-05-04 12:26 34.72871 27.67216 35040 ft 531 kts 142°
2026-05-04 12:27 34.67347 27.73178 35035 ft 531 kts 142°
2026-05-04 12:27 34.61820 27.79131 35035 ft 531 kts 142°
2026-05-04 12:28 34.56321 27.85042 35032 ft 532 kts 142°
2026-05-04 12:28 34.50779 27.90989 35034 ft 532 kts 143°
2026-05-04 12:29 34.45227 27.96936 35032 ft 533 kts 143°
2026-05-04 12:29 34.39711 28.02833 35031 ft 533 kts 143°
2026-05-04 12:30 34.34145 28.08773 35028 ft 533 kts 143°
2026-05-04 12:30 34.28578 28.14703 35030 ft 534 kts 143°
2026-05-04 12:31 34.22997 28.20637 35024 ft 534 kts 143°
2026-05-04 12:31 34.17447 28.26527 35027 ft 535 kts 143°
2026-05-04 12:32 34.09053 28.35416 35024 ft 535 kts 144°
2026-05-04 12:33 34.03449 28.41336 35023 ft 536 kts 144°
2026-05-04 12:33 33.97839 28.47252 35025 ft 536 kts 144°
2026-05-04 12:34 33.92267 28.53117 35037 ft 536 kts 144°
2026-05-04 12:34 33.86656 28.59013 35032 ft 536 kts 144°
2026-05-04 12:35 33.81035 28.64908 35029 ft 536 kts 144°
2026-05-04 12:35 33.75415 28.70791 35025 ft 536 kts 144°
2026-05-04 12:36 33.69889 28.76703 35028 ft 537 kts 142°
2026-05-04 12:36 33.64434 28.82824 35030 ft 536 kts 142°
2026-05-04 12:37 33.58990 28.88931 35026 ft 536 kts 142°
2026-05-04 12:37 33.53550 28.95023 35032 ft 535 kts 142°
2026-05-04 12:38 33.48143 29.01068 34907 ft 535 kts 142°
2026-05-04 12:38 33.45425 29.04102 34644 ft 534 kts 142°
2026-05-04 12:38 33.42707 29.07133 34376 ft 535 kts 142°
2026-05-04 12:38 33.39976 29.10175 34102 ft 536 kts 143°
2026-05-04 12:39 33.37243 29.13218 33798 ft 537 kts 143°
2026-05-04 12:39 33.34512 29.16256 33483 ft 538 kts 143°
2026-05-04 12:39 33.31764 29.19310 33173 ft 539 kts 143°
2026-05-04 12:39 33.29019 29.22357 32871 ft 539 kts 143°
2026-05-04 12:40 33.26306 29.25367 32566 ft 540 kts 143°
2026-05-04 12:40 33.23552 29.28419 32266 ft 541 kts 143°
2026-05-04 12:40 33.20791 29.31476 31969 ft 541 kts 143°
2026-05-04 12:40 33.18026 29.34536 31680 ft 542 kts 143°
2026-05-04 12:41 33.15259 29.37595 31393 ft 543 kts 143°
2026-05-04 12:41 33.12482 29.40660 31099 ft 544 kts 143°
2026-05-04 12:41 33.09709 29.43721 30809 ft 544 kts 143°
2026-05-04 12:41 33.06923 29.46792 30528 ft 545 kts 144°
2026-05-04 12:42 33.04137 29.49860 30249 ft 546 kts 144°
2026-05-04 12:42 33.01382 29.52891 29948 ft 547 kts 144°
2026-05-04 12:42 32.98588 29.55964 29618 ft 547 kts 144°
2026-05-04 12:42 32.95790 29.59036 29284 ft 547 kts 144°
2026-05-04 12:43 32.92987 29.62113 28964 ft 548 kts 143°
2026-05-04 12:43 32.90187 29.65183 28654 ft 548 kts 143°
2026-05-04 12:43 32.87384 29.68253 28337 ft 548 kts 143°
2026-05-04 12:43 32.84580 29.71322 28039 ft 548 kts 143°
2026-05-04 12:44 32.81769 29.74395 27732 ft 548 kts 143°
2026-05-04 12:44 32.79001 29.77419 27430 ft 549 kts 143°
2026-05-04 12:44 32.76190 29.80488 27133 ft 549 kts 143°
2026-05-04 12:44 32.73377 29.83555 26845 ft 549 kts 143°
2026-05-04 12:45 32.70568 29.86617 26565 ft 543 kts 143°
2026-05-04 12:45 32.67830 29.89599 26357 ft 526 kts 144°
2026-05-04 12:45 32.65171 29.92490 26132 ft 511 kts 144°
2026-05-04 12:45 32.62587 29.95297 25897 ft 497 kts 144°
2026-05-04 12:46 32.60072 29.98028 25661 ft 485 kts 144°
2026-05-04 12:46 32.57612 30.00697 25416 ft 475 kts 144°
2026-05-04 12:46 32.55210 30.03302 25134 ft 474 kts 144°
2026-05-04 12:46 32.52779 30.05936 24870 ft 472 kts 144°
2026-05-04 12:47 32.50362 30.08553 24599 ft 470 kts 144°
2026-05-04 12:47 32.47951 30.11156 24330 ft 468 kts 144°
2026-05-04 12:47 32.45551 30.13745 24066 ft 466 kts 144°
2026-05-04 12:47 32.43160 30.16322 23803 ft 464 kts 144°
2026-05-04 12:48 32.40778 30.18889 23522 ft 462 kts 144°
2026-05-04 12:48 32.38438 30.21406 23211 ft 460 kts 144°
2026-05-04 12:48 32.36080 30.23944 22898 ft 457 kts 144°
2026-05-04 12:48 32.33733 30.26466 22585 ft 455 kts 144°
2026-05-04 12:49 32.31400 30.28971 22284 ft 452 kts 144°
2026-05-04 12:49 32.29072 30.31469 21973 ft 450 kts 144°
2026-05-04 12:49 32.26761 30.33948 21681 ft 448 kts 144°
2026-05-04 12:49 32.24461 30.36413 21387 ft 446 kts 144°
2026-05-04 12:50 32.22169 30.38867 21094 ft 443 kts 144°
2026-05-04 12:50 32.19887 30.41309 20802 ft 441 kts 144°
2026-05-04 12:50 32.17649 30.43703 20523 ft 439 kts 144°
2026-05-04 12:50 32.15388 30.46119 20233 ft 437 kts 144°
2026-05-04 12:51 32.13142 30.48517 19955 ft 435 kts 144°
2026-05-04 12:51 32.10904 30.50906 19682 ft 433 kts 144°
2026-05-04 12:51 32.08676 30.53282 19407 ft 431 kts 144°
2026-05-04 12:51 32.06454 30.55650 19136 ft 429 kts 144°
2026-05-04 12:52 32.04247 30.58000 18855 ft 427 kts 144°
2026-05-04 12:52 32.02047 30.60341 18596 ft 425 kts 144°
2026-05-04 12:52 31.99886 30.62640 18328 ft 423 kts 144°
2026-05-04 12:52 31.97707 30.64956 18024 ft 421 kts 144°
2026-05-04 12:53 31.95541 30.67257 17721 ft 418 kts 144°
2026-05-04 12:53 31.93384 30.69546 17418 ft 415 kts 144°
2026-05-04 12:53 31.91245 30.71815 17125 ft 413 kts 144°
2026-05-04 12:53 31.89123 30.74064 16832 ft 410 kts 144°
2026-05-04 12:54 31.87721 30.75549 16643 ft 408 kts 144°
2026-05-04 12:54 31.85619 30.77776 16353 ft 405 kts 144°
2026-05-04 12:54 31.82853 30.80702 15978 ft 402 kts 144°
2026-05-04 12:54 31.80779 30.82895 15701 ft 400 kts 144°
2026-05-04 12:55 31.78720 30.85070 15425 ft 397 kts 144°
2026-05-04 12:55 31.76667 30.87238 15146 ft 395 kts 144°
2026-05-04 12:55 31.75317 30.88664 14969 ft 394 kts 144°
2026-05-04 12:55 31.72600 30.91529 14607 ft 391 kts 143°
2026-05-04 12:56 31.70580 30.93659 14344 ft 389 kts 143°
2026-05-04 12:56 31.69248 30.95062 14169 ft 388 kts 143°
2026-05-04 12:56 31.67247 30.97169 13911 ft 386 kts 143°
2026-05-04 12:56 31.64622 30.99932 13529 ft 377 kts 143°
2026-05-04 12:57 31.62719 31.01934 13281 ft 357 kts 144°
2026-05-04 12:57 31.60900 31.03845 13041 ft 347 kts 144°
2026-05-04 12:57 31.59118 31.05717 12758 ft 342 kts 144°
2026-05-04 12:57 31.57950 31.06944 12574 ft 339 kts 144°
2026-05-04 12:58 31.56200 31.08780 12289 ft 337 kts 143°
2026-05-04 12:58 31.54464 31.10602 12079 ft 333 kts 143°
2026-05-04 12:58 31.52637 31.12221 11892 ft 324 kts 160°
2026-05-04 12:58 31.50545 31.12924 11614 ft 306 kts 182°
2026-05-04 12:59 31.48433 31.13196 11413 ft 305 kts 180°
2026-05-04 12:59 31.45651 31.13658 11215 ft 306 kts 179°
2026-05-04 12:59 31.43551 31.14028 11060 ft 305 kts 179°
2026-05-04 12:59 31.42136 31.14284 10962 ft 304 kts 178°
2026-05-04 13:00 31.40076 31.14663 10805 ft 304 kts 178°
2026-05-04 13:00 31.37990 31.15050 10647 ft 303 kts 178°
2026-05-04 13:00 31.35906 31.15439 10496 ft 303 kts 178°
2026-05-04 13:00 31.33825 31.15828 10337 ft 302 kts 178°
2026-05-04 13:01 31.31751 31.16216 10187 ft 301 kts 178°
2026-05-04 13:01 31.29688 31.16602 10038 ft 300 kts 177°
2026-05-04 13:01 31.27621 31.16989 9886 ft 300 kts 177°
2026-05-04 13:01 31.25561 31.17374 9723 ft 299 kts 177°
2026-05-04 13:02 31.23510 31.17757 9559 ft 298 kts 177°
2026-05-04 13:02 31.21499 31.18132 9395 ft 297 kts 177°
2026-05-04 13:02 31.19465 31.18511 9256 ft 295 kts 177°
2026-05-04 13:02 31.17441 31.18889 9093 ft 294 kts 176°
2026-05-04 13:03 31.15428 31.19263 8937 ft 293 kts 176°
2026-05-04 13:03 31.13413 31.19638 8772 ft 292 kts 176°
2026-05-04 13:03 31.11411 31.20011 8614 ft 291 kts 176°
2026-05-04 13:03 31.09414 31.20383 8454 ft 290 kts 176°
2026-05-04 13:04 31.07426 31.20753 8291 ft 289 kts 176°
2026-05-04 13:04 31.05476 31.21115 8138 ft 285 kts 176°
2026-05-04 13:04 31.03527 31.21478 7980 ft 283 kts 176°
2026-05-04 13:04 31.01586 31.21838 7823 ft 282 kts 176°
2026-05-04 13:05 30.99650 31.22198 7667 ft 281 kts 176°
2026-05-04 13:05 30.97720 31.22555 7519 ft 280 kts 176°
2026-05-04 13:05 30.95798 31.22913 7397 ft 280 kts 175°
2026-05-04 13:05 30.93870 31.23270 7263 ft 280 kts 175°
2026-05-04 13:06 30.91950 31.23626 7137 ft 279 kts 175°
2026-05-04 13:06 30.90055 31.23977 7011 ft 279 kts 175°
2026-05-04 13:06 30.88145 31.24330 6884 ft 278 kts 175°
2026-05-04 13:06 30.86236 31.24683 6757 ft 278 kts 175°
2026-05-04 13:07 30.84330 31.25037 6629 ft 277 kts 174°
2026-05-04 13:07 30.82425 31.25388 6506 ft 277 kts 175°
2026-05-04 13:07 30.80521 31.25738 6395 ft 277 kts 175°
2026-05-04 13:07 30.78618 31.26091 6255 ft 277 kts 174°
2026-05-04 13:08 30.76717 31.26445 6120 ft 277 kts 174°
2026-05-04 13:08 30.74820 31.26795 5965 ft 276 kts 175°
2026-05-04 13:08 30.72938 31.27141 5862 ft 277 kts 174°
2026-05-04 13:08 30.71042 31.27494 5713 ft 275 kts 174°
2026-05-04 13:09 30.69145 31.27844 5646 ft 277 kts 175°
2026-05-04 13:09 30.67246 31.28194 5550 ft 276 kts 175°
2026-05-04 13:09 30.65351 31.28544 5474 ft 276 kts 174°
2026-05-04 13:09 30.63460 31.28892 5367 ft 276 kts 174°
2026-05-04 13:10 30.61568 31.29237 5280 ft 274 kts 174°
2026-05-04 13:10 30.59686 31.29585 5172 ft 273 kts 174°
2026-05-04 13:10 30.57831 31.29928 5102 ft 274 kts 174°
2026-05-04 13:10 30.55951 31.30275 4982 ft 273 kts 174°
2026-05-04 13:11 30.54067 31.30621 4957 ft 275 kts 174°
2026-05-04 13:11 30.52177 31.30967 4959 ft 276 kts 174°
2026-05-04 13:11 30.50286 31.31315 4966 ft 274 kts 174°
2026-05-04 13:11 30.48406 31.31660 4972 ft 274 kts 174°
2026-05-04 13:12 30.46523 31.32006 4965 ft 274 kts 174°
2026-05-04 13:12 30.44654 31.32351 4979 ft 276 kts 174°
2026-05-04 13:12 30.42765 31.32699 4962 ft 274 kts 174°
2026-05-04 13:12 30.40889 31.33042 4978 ft 271 kts 175°
2026-05-04 13:13 30.39069 31.33380 4954 ft 260 kts 175°
2026-05-04 13:13 30.37289 31.33704 4945 ft 258 kts 175°
2026-05-04 13:13 30.35483 31.34034 4796 ft 267 kts 174°
2026-05-04 13:13 30.33659 31.34371 4541 ft 263 kts 174°
2026-05-04 13:14 30.31882 31.34697 4528 ft 256 kts 174°
2026-05-04 13:14 30.30119 31.35020 4469 ft 257 kts 174°
2026-05-04 13:14 30.28375 31.35338 4480 ft 258 kts 174°
2026-05-04 13:14 30.26608 31.35660 4460 ft 257 kts 174°
2026-05-04 13:15 30.24882 31.35978 4471 ft 245 kts 174°
2026-05-04 13:15 30.23240 31.36282 4438 ft 233 kts 174°
2026-05-04 13:15 30.21665 31.36571 4490 ft 230 kts 175°
2026-05-04 13:15 30.20085 31.36859 4469 ft 230 kts 174°
2026-05-04 13:16 30.18501 31.37147 4475 ft 231 kts 174°
2026-05-04 13:16 30.16916 31.37437 4478 ft 230 kts 174°
2026-05-04 13:16 30.15356 31.37722 4448 ft 229 kts 174°
2026-05-04 13:16 30.13782 31.38010 4467 ft 230 kts 174°
2026-05-04 13:17 30.12199 31.38298 4467 ft 230 kts 174°
2026-05-04 13:17 30.10624 31.38586 4455 ft 229 kts 174°
2026-05-04 13:17 30.09051 31.38725 4425 ft 223 kts 193°
2026-05-04 13:17 30.07659 31.38158 4474 ft 205 kts 209°
2026-05-04 13:18 30.06349 31.37514 4398 ft 202 kts 208°
2026-05-04 13:18 30.05080 31.36908 4223 ft 190 kts 207°
2026-05-04 13:18 30.03911 31.36355 3963 ft 179 kts 208°
2026-05-04 13:18 30.02785 31.35822 3674 ft 175 kts 207°
2026-05-04 13:19 30.01648 31.35284 3428 ft 178 kts 206°
2026-05-04 13:19 30.00494 31.34743 3201 ft 179 kts 207°
2026-05-04 13:19 29.99343 31.34202 2934 ft 179 kts 207°
2026-05-04 13:19 29.98186 31.33659 2674 ft 180 kts 207°
2026-05-04 13:20 29.97040 31.33124 2501 ft 176 kts 207°
2026-05-04 13:20 29.95901 31.32591 2468 ft 176 kts 209°
2026-05-04 13:20 29.94778 31.32064 2446 ft 177 kts 209°
2026-05-04 13:20 29.93654 31.31499 2438 ft 176 kts 217°
2026-05-04 13:21 29.92737 31.30616 2438 ft 169 kts 238°
2026-05-04 13:21 29.92408 31.29400 2417 ft 156 kts 276°
2026-05-04 13:21 29.92736 31.28242 2446 ft 153 kts 307°
2026-05-04 13:21 29.93559 31.27487 2454 ft 154 kts 330°
2026-05-04 13:22 29.94499 31.26891 2468 ft 155 kts 327°
2026-05-04 13:22 29.95430 31.26262 2504 ft 155 kts 327°
2026-05-04 13:22 29.96361 31.25631 2494 ft 155 kts 327°
2026-05-04 13:22 29.97311 31.25055 2465 ft 157 kts 341°
2026-05-04 13:23 29.98401 31.25114 2419 ft 167 kts 14°
2026-05-04 13:23 29.99388 31.25877 2456 ft 176 kts 39°
2026-05-04 13:23 30.00221 31.26923 2489 ft 178 kts 41°
2026-05-04 13:23 30.01044 31.28003 2477 ft 180 kts 42°
2026-05-04 13:24 30.01863 31.29093 2475 ft 180 kts 44°
2026-05-04 13:24 30.02683 31.30182 2460 ft 179 kts 43°
2026-05-04 13:24 30.03495 31.31260 2474 ft 178 kts 43°
2026-05-04 13:25 30.05124 31.33422 2083 ft 178 kts 44°
2026-05-04 13:25 30.05923 31.34489 1898 ft 176 kts 43°
2026-05-04 13:25 30.06736 31.35559 1663 ft 177 kts 44°
2026-05-04 13:25 30.07532 31.36655 1359 ft 179 kts 43°
2026-05-04 13:26 30.08351 31.37733 1010 ft 178 kts 43°
2026-05-04 13:26 30.09159 31.38786 660 ft 172 kts 44°
2026-05-04 13:26 30.09931 31.39817 449 ft 170 kts 40°
2026-05-04 13:26 30.10714 31.40838 405 ft 162 kts 42°
2026-05-04 13:27 30.11396 31.41706 378 ft 127 kts 46°
2026-05-04 13:27 30.11847 31.42311 372 ft 73 kts 47°